Hlavní strana
METAR-TAF:

METAR-TAF

Letiště :

Newberry, Jižní Karolína, Spojené státy americké

zeměpisná šířka: 34-18-34N, zeměpisná délka: 081-38-26W, výška: 174 m

Aktuální stav počasí

Zpráva byla vytvořena před 23 minutami, v 01:15 UTC
Bezvětří
Teplota 4°C
Vlhkost vzduchu 100%
Tlak 1022 hPa
Viditelnost: 16.1 km
Polojasno ve výšce 500 ft
Zataženo ve výšce 3500 ft

METAR: KEOE 190115Z AUTO 00000KT 10SM SCT005 OVC035 04/04 A3017 RMK AO2

Čas: 20:38 (01:38 UTC)


TAF: chybějící

Stav a předpovědi počasí z více než 4 000 letišť (zprávy METAR a TAF).

Červené a žluté tečky na mapě představují dostupné meteorologické stanice.

Když kurzor umístíte na tečku, zobrazí se název stanice.

Pak kliknutím zobrazíte stav a předpověď počasí.

Chcete-li změnit mapu, kliknutím na zelené tlačítko se znaménkem +mapu přiblížíte, kliknutím na zelené tlačítko se znaménkem – mapu oddálíte a kliknutím na zelené šipky přejdete na sousední mapy.


METAR-TAF: